Regional Weather Roundup
Issued by NWS

Home | Current Version | Previous Version | Graphics & Text | Print | Product List | Glossary On
Versions: 1 2 3 4 5 6 7 8 9 10 11 12 13 14 15 16 17 18 19 20 21 22 23 24 25 26 27 28 29 30 31 32 33 34 35 36 37 38 39 40 41 42 43 44 45 46 47 48 49 50
253
ASUS45 KTFX 091410
RWRMT
MONTANA REGIONAL WEATHER ROUNDUP
NATIONAL WEATHER SERVICE GREAT FALLS MT
700 AM MST TUE FEB 09 2016

NOTE: "FAIR" INDICATES FEW OR NO CLOUDS BELOW 12000 FEET WITH NO
SIGNIFICANT WEATHER AND/OR OBSTRUCTIONS TO VISIBILITY.

MTZ001>007-043-091500-
WEST OF THE DIVIDE

CITY           SKY/WX    TMP DP  RH WIND       PRES   REMARKS
KALISPELL      CLEAR     17  15  92 CALM      30.51F
MISSOULA       PTCLDY    20  17  88 CALM      30.54S FOG
BUTTE          FOG       13  10  88 CALM      30.49S VSB 1/4
MULLAN PASS    CLEAR     37  30  75 S7        30.45F WCI  32
ANACONDA         N/A     25  21  86 SW3       30.48F
DEER LODGE       N/A     25  25 100 CALM      30.50S
HAMILTON         N/A     27  25  93 CALM      30.50S
LIBBY            N/A     18  16  93 CALM      30.54R
PLAINS           N/A     25  21  84 CALM      30.50S VSB 0
$$

MTZ008-052>055-091500-
SOUTHWEST MONTANA

CITY           SKY/WX    TMP DP  RH WIND       PRES   REMARKS
BOZEMAN        CLOUDY    15  13  91 CALM      30.46S
DILLON         CLOUDY    27  21  78 S7        30.47S WCI  19
ENNIS          CLEAR     25  21  86 SE5       30.54R
TWIN BRIDGES     N/A     22  15  74 SE6       30.41S WCI  15
$$

MTZ009-010-012-014-046-048-049-054-091500-
EAST SLOPES AND CENTRAL MONTANA

CITY           SKY/WX    TMP DP  RH WIND       PRES   REMARKS
CUT BANK       CLEAR     40  28  62 W14       30.27F
GREAT FALLS    CLOUDY    40  28  62 SW15      30.30F
MALMSTROM AFB  CLEAR     38  29  70 SW17      30.30F WCI  28
HELENA         CLOUDY    31  27  85 CALM      30.43S
CHOTEAU          N/A     46  23  39 SW10      30.31F
CONRAD           N/A     33  24  70 SE2       30.27F
$$

MTZ011-013-016-021-045-047-050-051-091500-
NORTH CENTRAL MONTANA

CITY           SKY/WX    TMP DP  RH WIND       PRES   REMARKS
HAVRE          CLEAR     32  27  81 SW15      30.25S WCI  22
LEWISTOWN      CLEAR     34  22  61 W8        30.30S WCI  27
N BAR RANCH      N/A     45  23  42 NW18      30.27F
CHINOOK          N/A     21  21 100 CALM      30.25F
$$

MTZ017>020-022>027-061-062-091500-
NORTHEAST MONTANA

CITY           SKY/WX    TMP DP  RH WIND       PRES   REMARKS
GLASGOW        CLOUDY    30  26  85 W3        30.23F
JORDAN           N/A     29  27  92 W9        30.24F WCI  20
SIDNEY         CLOUDY    34  23  64 NW12      30.21R WCI  25
WOLF POINT     CLOUDY    32  27  81 SW8       30.24S WCI  25
PLENTYWOOD       N/A     30  25  80 NW12      30.20R WCI  21
POPLAR           N/A     30  27  86 W7        30.24R WCI  23
SCOBEY           N/A     31  18  58 W1        30.17S
$$

MTZ028>42-056>058-091500-
SOUTHCENTRAL AND SOUTHEAST MONTANA

CITY           SKY/WX    TMP DP  RH WIND       PRES   REMARKS
BAKER          CLOUDY    32  24  72 W13       30.20F WCI  22
BILLINGS       CLEAR     33  22  63 SW17      30.29F WCI  22
LIVINGSTON     CLOUDY    43  23  45 SW21G31   30.40R
MILES CITY     CLOUDY    28  24  85 SW12      30.25F WCI  18
EKALAKA          N/A     30  23  75 NW1       30.17
FORSYTH          N/A     32  27  80 SW7       30.26F WCI  26
LAUREL           N/A     31  14  49 SW13      30.27F WCI  21
ROUNDUP          N/A     36  26  67 S2        30.16S
$$

REGIONAL REPORTS...DAKOTAS

CITY           SKY/WX    TMP DP  RH WIND       PRES   REMARKS
WILLISTON      CLOUDY    29  23  78 CALM      30.21R
MINOT          CLOUDY    26   9  48 SW10      30.21S WCI  16
DICKINSON      MOCLDY    20  15  81 S5        30.15F
BEACH          CLOUDY    32  25  74 NW15      30.22R WCI  22
CROSBY           N/A     23  23 100 NW12      30.21S WCI  12
TIOGA          CLOUDY    19  19 100 NE3       30.23R
WATFORD CITY   CLOUDY    27  21  80 W6        30.19S WCI  20
BISMARCK       CLOUDY    25  12  58 SW5       30.26S
GRAND FORKS    CLOUDY    11   4  73 N12       30.29S WCI  -3
FARGO          CLOUDY    11   4  73 N10       30.28R WCI  -3
BUFFALO SD       N/A     29  23  78 W10       30.12S WCI  20
RAPID CITY     CLEAR     22  15  75 CALM      30.21S
$$

REGIONAL REPORTS...WYOMING/IDAHO/WASHINGTON

CITY           SKY/WX    TMP DP  RH WIND       PRES   REMARKS
GILLETTE       CLEAR     33  27  78 W12       30.26S WCI  24
SHERIDAN       PTCLDY    39  27  62 W12       30.29R WCI  32
BUFFALO WY     CLEAR     40  26  57 CALM      30.29R
CODY           CLOUDY    30  19  64 CALM      30.35S
YELLOWSTONE LA   N/A     12   9  87 CALM      30.56F
IDAHO FALLS    FOG        4   1  88 VRB3      30.61S VSB 1/2
SALMON         CLOUDY     7   3  85 CALM      30.66S
BOISE          CLOUDY    28  23  81 S8        30.60S WCI  20
SPOKANE        PTCLDY    30  28  92 NE8       30.45F WCI  22
$$

REGIONAL REPORTS...ALBERTA

CITY           SKY/WX    TMP DP  RH WIND       PRES   REMARKS
EDMONTON       PTCLDY    37  27  65 SW9       30.11F WCI  31
CALGARY        PTCLDY    36  21  55 SE6       30.20F WCI  31
LETHBRIDGE     PTCLDY    41  28  60 SW10      30.24F
MEDICINE HAT   MOCLDY    30  28  93 SW7       30.22S WCI  23
MILK RIVER       N/A     34  25  69 W13         N/A  WCI  25
$$

REGIONAL REPORTS...SASKATCHEWAN

CITY           SKY/WX    TMP DP  RH WIND       PRES   REMARKS
SWIFT CURRENT  CLOUDY    32  28  86 SW6       30.17F WCI  26
REGINA         CLOUDY    21  21 100 CALM      30.21F
SASKATOON      FLURRIES  25  21  86 SE5       30.22F
CYPRESS HILLS    N/A     36  23  60 NW6         N/A  WCI  31
VAL MARIE        N/A     27  25  93 E1          N/A
ROCKGLEN         N/A     30  27  86 NW9         N/A  WCI  22
ASSINIBOIA       N/A     34  28  80 W8          N/A  WCI  27
$$




USA.gov is the U.S. government's official web portal to all federal, state and local government web resources and services.